Location: Acheville
(50.3840°N, 2.8827°E)
Time: 10:39:12
(UTC+00:00)

USA 267 - Pass Details

Date: 24 October 2021
Orbit: 1101 x 1107 km, 123.0° (Epoch: 27 November)

Event Time Altitude Azimuth Distance (km) Brightness Sun altitude
Rises 17:55:29 0° 142° (SE) 3,907 5.8 -12.9°
Reaches altitude 10° 17:58:03 10° 148° (SSE) 2,952 5.2 -13.3°
Maximum altitude 18:04:21 50° 223° (SW) 1,374 4.1 -14.3°
Drops below altitude 10° 18:10:41 10° 297° (WNW) 2,964 6.5 -15.3°
Sets 18:13:17 0° 303° (WNW) 3,925 7.2 -15.7°
